N1SD KLAX-

Flight info

Callsign N1SD
Flight time N/A
Altitude VFR
Route VFR N
Aircraft EC14/L-VGD/C

Departure

Time 2026-04-25 20:52
Airport Los Angeles International Airport (KLAX)

Arrival

Time N/A
Airport -
Time Latitude Longitude Altitude Speed Heading
2026-04-25 20:40 33.93388 -118.39574 104 ft 0 kts 225°
2026-04-25 20:48 33.93384 -118.39591 123 ft 13 kts 235°
2026-04-25 20:48 33.93375 -118.39904 223 ft 65 kts 255°
2026-04-25 20:48 33.93317 -118.40601 293 ft 94 kts 259°
2026-04-25 20:48 33.93213 -118.41450 330 ft 110 kts 253°
2026-04-25 20:49 33.93148 -118.42402 380 ft 115 kts 257°
2026-04-25 20:49 33.93116 -118.43373 318 ft 117 kts 278°
2026-04-25 20:49 33.93704 -118.44010 156 ft 128 kts 337°
2026-04-25 20:49 33.94484 -118.44366 199 ft 114 kts 329°
2026-04-25 20:50 33.95181 -118.44746 152 ft 104 kts 332°
2026-04-25 20:50 33.95761 -118.45088 148 ft 86 kts 341°
2026-04-25 20:50 33.96328 -118.45042 199 ft 81 kts 11°
2026-04-25 20:50 33.96887 -118.44905 271 ft 80 kts 19°
2026-04-25 20:51 33.97383 -118.44564 231 ft 87 kts 49°
2026-04-25 20:51 33.97749 -118.44047 391 ft 79 kts 60°
2026-04-25 20:51 33.98016 -118.43504 539 ft 81 kts 72°
2026-04-25 20:51 33.98269 -118.42797 580 ft 106 kts 70°
2026-04-25 20:52 33.98544 -118.41940 703 ft 114 kts 72°
2026-04-25 20:52 33.98729 -118.41337 783 ft 120 kts 74°
2026-04-25 20:52 33.99108 -118.40001 738 ft 131 kts 73°
2026-04-25 20:52 33.99434 -118.38946 766 ft 137 kts 69°
2026-04-25 20:53 33.99792 -118.37868 860 ft 139 kts 68°
2026-04-25 20:53 34.00176 -118.36789 900 ft 142 kts 70°
2026-04-25 20:53 34.00580 -118.35704 894 ft 142 kts 68°
2026-04-25 20:53 34.01054 -118.34661 826 ft 145 kts 58°
2026-04-25 20:54 34.01582 -118.33653 918 ft 136 kts 56°
2026-04-25 20:54 34.02124 -118.32744 1051 ft 130 kts 50°
2026-04-25 20:54 34.02694 -118.31941 1234 ft 123 kts 49°
2026-04-25 20:54 34.03173 -118.31101 1361 ft 119 kts 57°
2026-04-25 20:55 34.03672 -118.30311 1527 ft 119 kts 51°
2026-04-25 20:55 34.04199 -118.29507 1547 ft 127 kts 53°
2026-04-25 20:55 34.04677 -118.28601 1428 ft 129 kts 58°
2026-04-25 20:55 34.05102 -118.27699 1351 ft 113 kts 60°
2026-04-25 20:56 34.05504 -118.26934 1214 ft 97 kts 81°
2026-04-25 20:56 34.05648 -118.26357 1117 ft 62 kts 137°
2026-04-25 20:56 34.05319 -118.26183 825 ft 48 kts 185°
2026-04-25 20:56 34.05221 -118.26186 670 ft 4 kts 213°
2026-04-25 20:57 34.05169 -118.26205 641 ft 4 kts 212°
2026-04-25 20:57 34.05158 -118.26210 610 ft 2 kts 224°
2026-04-25 20:57 34.05154 -118.26214 605 ft 0 kts 232°
2026-04-25 21:28 34.05147 -118.26227 625 ft 8 kts 233°
2026-04-25 21:28 34.05074 -118.26426 709 ft 45 kts 219°
2026-04-25 21:28 34.04737 -118.26778 649 ft 82 kts 219°